Location: SBMNH
(34.4407°N, 119.7157°W)
Time: 18:36:58
(UTC-07:00)

N. Korean satellite - Visible Passes

Search period start: 18 August 2022 00:00
Search period end: 28 August 2022 00:00
Orbit: 433 x 469 km, 97.3° (Epoch: 18 August)

Date Brightness Start Highest point End Pass type
(mag) Time Alt. Az. Time Alt. Az. Time Alt. Az.
18 Aug 9.7 05:13:36 10° ENE 05:15:12 13° E 05:16:48 10° ESE visible
20 Aug 8.8 05:35:51 10° NE 05:38:51 26° E 05:41:47 10° SSE visible
23 Aug 9.4 05:24:58 10° NE 05:27:27 18° E 05:29:54 10° SE visible
25 Aug 8.1 05:47:29 10° NNE 05:50:45 38° E 05:53:58 10° SSE visible
26 Aug 9.7 05:14:14 10° ENE 05:15:47 13° E 05:17:20 10° ESE visible
